NC0S Weather Reports


time (UTC)temp
F
wind
direction
speed
knots
gust
knots
rain 1hr
in
rain 24hr
in
rain mn
in
humidity
%
barometer
mb
20260507172028 64 247 0.9 1.7 0.00 0.00 0.00 47 1016.5
20260507171028 64 235 0.9 2.6 0.00 0.00 0.00 50 1016.6
20260507170028 63 273 0.9 3.5 0.00 0.00 0.00 51 1016.6
20260507165108 62 177 0.9 2.6 0.00 0.00 0.00 52 1017.0
20260507164028 63 206 0.9 3.5 0.00 0.00 0.00 52 1017.0
20260507163048 65 235 0.9 3.5 0.00 0.00 0.00 49 1017.1
20260507162028 64 269 0.9 1.7 0.00 0.00 0.00 50 1017.2
20260507161028 64 228 0.9 3.5 0.00 0.00 0.00 51 1017.1
20260507160029 63 209 0.9 3.5 0.00 0.00 0.00 51 1017.2
20260507155028 63 217 0.0 1.7 0.00 0.00 0.00 52 1017.4
20260507154028 62 223 0.9 2.6 0.00 0.00 0.00 52 1017.5
20260507153028 62 218 0.9 2.6 0.00 0.00 0.00 53 1017.6
20260507152029 62 261 0.9 2.6 0.00 0.00 0.00 53 1017.7
20260507151049 62 205 0.9 5.2 0.00 0.00 0.00 53 1017.7
20260507150028 62 229 0.9 2.6 0.00 0.00 0.00 53 1017.6
20260507145028 62 121 0.9 2.6 0.00 0.00 0.00 55 1017.9
20260507144028 61 267 0.9 2.6 0.00 0.00 0.00 54 1017.8
20260507143028 60 0.0 2.6 0.00 0.00 0.00 58 1017.8
20260507142029 59 189 0.9 5.2 0.00 0.00 0.00 57 1017.9
20260507141028 59 208 0.9 1.7 0.00 0.00 0.00 58 1018.0
20260507140028 58 193 0.0 0.9 0.00 0.00 0.00 60 1018.1
20260507135028 57 141 0.0 2.6 0.00 0.00 0.00 59 1018.0
20260507134028 56 252 0.0 1.7 0.00 0.00 0.00 62 1018.0
20260507133028 56 171 0.0 0.9 0.00 0.00 0.00 63 1018.1
20260507132028 55 0.0 0.9 0.00 0.00 0.00 64 1018.0
20260507131028 54 157 0.0 0.9 0.00 0.00 0.00 65 1018.1
20260507130029 53 177 0.0 1.7 0.00 0.00 0.00 66 1018.3
20260507125028 51 0.0 0.9 0.00 0.00 0.00 69 1018.2
20260507124028 49 0.0 0.9 0.00 0.00 0.00 71 1018.1
20260507123028 48 26 0.0 0.9 0.00 0.00 0.00 72 1018.1
20260507122047 47 0.0 0.0 0.00 0.00 0.00 73 1018.1
20260507121048 46 0.0 0.0 0.00 0.00 0.00 74 1018.2
20260507120027 45 0.0 0.0 0.00 0.00 0.00 75 1018.1
20260507115028 44 0.0 0.0 0.00 0.00 0.00 77 1018.0
20260507114028 44 0.0 0.0 0.00 0.00 0.00 78 1018.3
20260507113028 44 0.0 0.0 0.00 0.00 0.00 78 1018.0
20260507112028 44 0.0 0.0 0.00 0.00 0.00 77 1017.9
20260507111028 44 0.0 0.0 0.00 0.00 0.00 75 1017.9
20260507110028 45 0.0 0.0 0.00 0.00 0.00 74 1017.8
20260507105028 45 0.0 0.0 0.00 0.00 0.00 73 1017.8
20260507104028 45 0.0 0.0 0.00 0.00 0.00 72 1017.8
20260507103028 45 0.0 0.0 0.00 0.00 0.00 72 1017.9
20260507102028 45 0.0 0.0 0.00 0.00 0.00 71 1018.0
20260507101028 46 0.0 0.0 0.00 0.00 0.00 71 1017.8
20260507100028 45 0.0 0.0 0.00 0.00 0.00 71 1018.0
20260507095028 45 0.0 0.0 0.00 0.00 0.00 71 1018.0
20260507094028 45 0.0 0.0 0.00 0.00 0.00 70 1018.2
20260507093028 45 0.0 0.0 0.00 0.00 0.00 69 1018.3
20260507092028 45 0.0 0.0 0.00 0.00 0.00 69 1018.3
20260507091028 45 0.0 0.0 0.00 0.00 0.00 68 1018.3
20260507090028 45 0.0 0.0 0.00 0.00 0.00 67 1018.3
20260507085028 45 0.0 0.0 0.00 0.00 0.00 68 1018.1
20260507084028 45 0.0 0.0 0.00 0.00 0.00 67 1018.2
20260507083028 45 0.0 0.0 0.00 0.00 0.00 67 1018.4
20260507082027 45 0.0 0.0 0.00 0.00 0.00 67 1018.4
20260507081028 45 0.0 0.0 0.00 0.00 0.00 69 1018.3
20260507080028 45 0.0 0.0 0.00 0.00 0.00 68 1018.2
20260507075028 45 0.0 0.0 0.00 0.00 0.00 67 1018.3
20260507074029 45 0.0 0.0 0.00 0.00 0.00 67 1018.4
20260507073027 46 0.0 0.0 0.00 0.00 0.00 66 1018.3
20260507072028 46 0.0 0.0 0.00 0.00 0.00 65 1018.4
20260507071108 46 0.0 0.0 0.00 0.00 0.00 64 1018.7
20260507070028 46 0.0 0.0 0.00 0.00 0.00 65 1018.7
20260507065048 47 0.0 0.0 0.00 0.00 0.00 66 1018.8
20260507064028 47 0.0 0.0 0.00 0.01 0.00 67 1018.9
20260507063028 47 0.0 0.0 0.00 0.02 0.00 66 1018.9
20260507062028 47 0.0 0.0 0.00 0.02 0.00 63 1018.9
20260507061028 47 0.0 0.0 0.00 0.02 0.00 64 1019.0
20260507060028 47 0.0 0.0 0.00 0.02 0.00 65 1018.8
20260507055028 46 0.0 0.0 0.00 0.02 0.00 69 1018.9
20260507054028 46 0.0 0.0 0.00 0.02 0.00 70 1019.0
20260507053028 45 0.0 0.0 0.00 0.02 0.00 71 1018.9
20260507052028 44 0.0 0.0 0.00 0.02 0.00 72 1019.0
20260507051028 43 0.0 0.0 0.00 0.02 0.00 75 1018.9
20260507050028 44 0.0 0.0 0.00 0.02 0.00 77 1019.1
20260507045028 44 0.0 0.0 0.00 0.02 0.02 74 1019.1
20260507044028 44 0.0 0.0 0.00 0.02 0.02 74 1019.1
20260507043048 44 0.0 0.0 0.00 0.02 0.02 74 1019.0
20260507042028 44 0.0 0.0 0.00 0.02 0.02 71 1018.9
20260507041028 44 0.0 0.0 0.00 0.02 0.02 71 1019.0
20260507040028 44 0.0 0.0 0.00 0.02 0.02 70 1019.2
20260507035028 44 0.0 0.0 0.00 0.02 0.02 69 1019.3
20260507034028 45 0.0 0.0 0.00 0.02 0.02 66 1019.2
20260507033028 45 0.0 0.0 0.00 0.02 0.02 67 1019.1
20260507032028 45 0.0 0.0 0.00 0.02 0.02 65 1019.1
20260507031028 45 0.0 0.0 0.00 0.02 0.02 65 1019.0
20260507030028 46 0.0 0.0 0.00 0.02 0.02 65 1019.1
20260507025028 46 0.0 0.0 0.00 0.02 0.02 63 1019.0
20260507024028 47 0.0 0.0 0.00 0.02 0.02 61 1019.0
20260507023028 47 0.0 0.0 0.00 0.02 0.02 61 1018.9
20260507022028 48 0.0 0.0 0.00 0.02 0.02 57 1018.9
20260507021029 49 0.0 0.0 0.00 0.02 0.02 54 1018.7
20260507020027 50 0.0 0.0 0.00 0.02 0.02 53 1018.7
20260507015028 51 0.0 0.0 0.00 0.02 0.02 48 1018.6
20260507014029 52 0.0 0.0 0.00 0.02 0.02 45 1018.5
20260507013048 53 0.0 0.0 0.00 0.02 0.02 43 1018.4
20260507012028 54 0.0 0.0 0.00 0.02 0.02 40 1018.3
20260507011028 55 33 0.0 0.9 0.00 0.02 0.02 38 1018.3
20260507010028 56 35 0.0 1.7 0.00 0.02 0.02 36 1018.2
20260507005028 56 36 0.9 2.6 0.00 0.02 0.02 36 1018.2
20260507004028 56 0.0 0.9 0.00 0.02 0.02 38 1018.2
20260507003028 57 0.0 0.0 0.00 0.02 0.02 36 1018.1
20260507002028 57 330 0.0 1.7 0.00 0.02 0.02 33 1018.2
20260507001028 57 306 0.9 2.6 0.00 0.02 0.02 34 1018.0
20260507000028 58 40 0.9 2.6 0.00 0.02 0.02 33 1018.1
20260506235028 58 59 0.0 1.7 0.00 0.02 0.02 33 1018.2
20260506234028 58 36 0.9 3.5 0.00 0.02 0.02 33 1018.3
20260506233029 58 15 0.0 2.6 0.00 0.02 0.02 33 1018.0
20260506232028 58 350 0.0 1.7 0.00 0.02 0.02 34 1018.1
20260506231028 59 23 1.7 5.2 0.00 0.02 0.02 32 1018.1
20260506230028 59 37 0.9 3.5 0.00 0.02 0.02 33 1018.0
20260506225029 59 26 0.9 0.9 0.00 0.02 0.02 35 1018.1
20260506224028 59 91 0.9 3.5 0.00 0.02 0.02 33 1018.1
20260506223028 59 5 1.7 5.2 0.00 0.02 0.02 34 1018.2
20260506222028 59 347 0.0 3.5 0.00 0.02 0.02 34 1018.2
20260506221028 59 16 1.7 5.2 0.00 0.02 0.02 33 1018.3
20260506220028 59 313 0.9 5.2 0.00 0.02 0.02 33 1018.4
20260506215028 59 254 0.9 2.6 0.00 0.02 0.02 34 1018.4
20260506214048 59 19 1.7 3.5 0.00 0.02 0.02 34 1018.5
20260506213028 59 36 1.7 6.1 0.00 0.02 0.02 34 1018.7
20260506212028 59 2 0.9 2.6 0.00 0.02 0.02 35 1018.6
20260506211048 59 357 1.7 3.5 0.00 0.02 0.02 32 1018.7
20260506210028 59 12 1.7 6.1 0.00 0.02 0.02 33 1018.9
20260506205028 59 19 0.9 6.1 0.00 0.02 0.02 33 1019.1
20260506204028 59 37 1.7 5.2 0.00 0.02 0.02 34 1019.2
20260506203028 59 6 0.9 5.2 0.00 0.02 0.02 34 1019.3
20260506202048 59 355 0.9 3.5 0.00 0.02 0.02 34 1019.4
20260506201028 58 4 0.0 1.7 0.00 0.02 0.02 34 1019.4
20260506200028 58 9 0.0 2.6 0.00 0.02 0.02 33 1019.5
20260506195028 58 347 0.9 3.5 0.00 0.02 0.02 32 1019.6
20260506194028 58 23 0.9 2.6 0.00 0.02 0.02 33 1019.6
20260506193028 58 16 0.9 2.6 0.00 0.02 0.02 35 1019.8
20260506192028 58 38 1.7 5.2 0.00 0.03 0.02 34 1019.7
20260506191028 58 351 0.9 3.5 0.00 0.03 0.02 37 1019.7
20260506190028 58 22 1.7 6.1 0.00 0.03 0.02 34 1019.8
20260506185028 58 10 1.7 6.1 0.00 0.03 0.02 31 1019.9
20260506184048 58 75 0.0 3.5 0.00 0.03 0.02 35 1020.0
20260506183029 57 331 0.0 1.7 0.00 0.03 0.02 37 1020.1
20260506182028 57 324 0.9 2.6 0.00 0.03 0.02 35 1020.1
20260506181029 57 14 0.9 1.7 0.00 0.03 0.02 38 1020.2
20260506180028 56 350 0.0 1.7 0.00 0.03 0.02 39 1020.2
20260506175029 56 42 0.0 1.7 0.00 0.03 0.02 37 1020.3
20260506174028 56 353 0.9 5.2 0.00 0.03 0.02 36 1020.3
20260506173048 56 47 1.7 5.2 0.00 0.03 0.02 36 1020.5